owner,sensor,date,latitude,longitude,sea_surface_height_above_sea_level,qcFlag 
COMPS,ioos:station:USF.COMPS:ARP:1,2017-05-01T00:00:00Z,28.4330,-82.6670,-9.772,1111122 
COMPS,ioos:station:USF.COMPS:ARP:1,2017-05-01T00:06:00Z,28.4330,-82.6670,-9.792,1111122 
COMPS,ioos:station:USF.COMPS:ARP:1,2017-05-01T00:12:00Z,28.4330,-82.6670,-9.812,1111122 
COMPS,ioos:station:USF.COMPS:ARP:1,2017-05-01T00:18:00Z,28.4330,-82.6670,-9.831,1111122 
COMPS,ioos:station:USF.COMPS:ARP:1,2017-05-01T00:24:00Z,28.4330,-82.6670,-9.851,1111122 
COMPS,ioos:station:USF.COMPS:ARP:1,2017-05-01T00:30:00Z,28.4330,-82.6670,-9.875,1111122 
COMPS,ioos:station:USF.COMPS:ARP:1,2017-05-01T00:36:00Z,28.4330,-82.6670,-9.895,1111122 
COMPS,ioos:station:USF.COMPS:ARP:1,2017-05-01T00:42:00Z,28.4330,-82.6670,-9.916,1111122 
COMPS,ioos:station:USF.COMPS:ARP:1,2017-05-01T00:48:00Z,28.4330,-82.6670,-9.936,1111122 
COMPS,ioos:station:USF.COMPS:ARP:1,2017-05-01T00:54:00Z,28.4330,-82.6670,-9.957,1111122 
COMPS,ioos:station:USF.COMPS:ARP:1,2017-05-01T01:00:00Z,28.4330,-82.6670,-9.979,1111122 
COMPS,ioos:station:USF.COMPS:ARP:1,2017-05-01T01:06:00Z,28.4330,-82.6670,-9.999,1111122 
COMPS,ioos:station:USF.COMPS:ARP:1,2017-05-01T08:36:00Z,28.4330,-82.6670,-9.991,1111122 
COMPS,ioos:station:USF.COMPS:ARP:1,2017-05-01T08:42:00Z,28.4330,-82.6670,-9.979,1111122 
COMPS,ioos:station:USF.COMPS:ARP:1,2017-05-01T08:48:00Z,28.4330,-82.6670,-9.963,1111122 
COMPS,ioos:station:USF.COMPS:ARP:1,2017-05-01T08:54:00Z,28.4330,-82.6670,-9.951,1111122 
COMPS,ioos:station:USF.COMPS:ARP:1,2017-05-01T09:00:00Z,28.4330,-82.6670,-9.94,1111122 
COMPS,ioos:station:USF.COMPS:ARP:1,2017-05-01T09:06:00Z,28.4330,-82.6670,-9.924,1111122 
COMPS,ioos:station:USF.COMPS:ARP:1,2017-05-01T09:12:00Z,28.4330,-82.6670,-9.91,1111122 
COMPS,ioos:station:USF.COMPS:ARP:1,2017-05-01T09:18:00Z,28.4330,-82.6670,-9.894,1111122 
COMPS,ioos:station:USF.COMPS:ARP:1,2017-05-01T09:24:00Z,28.4330,-82.6670,-9.879,1111122 
COMPS,ioos:station:USF.COMPS:ARP:1,2017-05-01T09:30:00Z,28.4330,-82.6670,-9.864,1111122 
COMPS,ioos:station:USF.COMPS:ARP:1,2017-05-01T09:36:00Z,28.4330,-82.6670,-9.849,1111122 
COMPS,ioos:station:USF.COMPS:ARP:1,2017-05-01T09:42:00Z,28.4330,-82.6670,-9.837,1111122 
COMPS,ioos:station:USF.COMPS:ARP:1,2017-05-01T09:48:00Z,28.4330,-82.6670,-9.825,1111122 
COMPS,ioos:station:USF.COMPS:ARP:1,2017-05-01T09:54:00Z,28.4330,-82.6670,-9.813,1111122 
COMPS,ioos:station:USF.COMPS:ARP:1,2017-05-01T10:00:00Z,28.4330,-82.6670,-9.801,1111122 
COMPS,ioos:station:USF.COMPS:ARP:1,2017-05-01T10:06:00Z,28.4330,-82.6670,-9.793,1111122 
COMPS,ioos:station:USF.COMPS:ARP:1,2017-05-01T10:12:00Z,28.4330,-82.6670,-9.779,1111122 
COMPS,ioos:station:USF.COMPS:ARP:1,2017-05-01T10:18:00Z,28.4330,-82.6670,-9.766,1111122 
COMPS,ioos:station:USF.COMPS:ARP:1,2017-05-01T10:24:00Z,28.4330,-82.6670,-9.761,1111122 
COMPS,ioos:station:USF.COMPS:ARP:1,2017-05-01T10:30:00Z,28.4330,-82.6670,-9.759,1111122 
COMPS,ioos:station:USF.COMPS:ARP:1,2017-05-01T10:36:00Z,28.4330,-82.6670,-9.757,1111122 
COMPS,ioos:station:USF.COMPS:ARP:1,2017-05-01T10:42:00Z,28.4330,-82.6670,-9.748,1111122 
COMPS,ioos:station:USF.COMPS:ARP:1,2017-05-01T10:48:00Z,28.4330,-82.6670,-9.751,1111122 
COMPS,ioos:station:USF.COMPS:ARP:1,2017-05-01T10:54:00Z,28.4330,-82.6670,-9.744,1111122 
COMPS,ioos:station:USF.COMPS:ARP:1,2017-05-01T11:00:00Z,28.4330,-82.6670,-9.75,1111122 
COMPS,ioos:station:USF.COMPS:ARP:1,2017-05-01T11:06:00Z,28.4330,-82.6670,-9.762,1111122 
COMPS,ioos:station:USF.COMPS:ARP:1,2017-05-01T11:12:00Z,28.4330,-82.6670,-9.75,1111122 
COMPS,ioos:station:USF.COMPS:ARP:1,2017-05-01T11:18:00Z,28.4330,-82.6670,-9.751,1111122 
COMPS,ioos:station:USF.COMPS:ARP:1,2017-05-01T11:24:00Z,28.4330,-82.6670,-9.756,1111122 
COMPS,ioos:station:USF.COMPS:ARP:1,2017-05-01T11:30:00Z,28.4330,-82.6670,-9.749,1111122 
COMPS,ioos:station:USF.COMPS:ARP:1,2017-05-01T11:36:00Z,28.4330,-82.6670,-9.743,1111122 
COMPS,ioos:station:USF.COMPS:ARP:1,2017-05-01T11:42:00Z,28.4330,-82.6670,-9.75,1111122 
COMPS,ioos:station:USF.COMPS:ARP:1,2017-05-01T11:48:00Z,28.4330,-82.6670,-9.764,1111122 
COMPS,ioos:station:USF.COMPS:ARP:1,2017-05-01T11:54:00Z,28.4330,-82.6670,-9.748,1111122 
COMPS,ioos:station:USF.COMPS:ARP:1,2017-05-01T12:00:00Z,28.4330,-82.6670,-9.756,1111122 
COMPS,ioos:station:USF.COMPS:ARP:1,2017-05-01T12:06:00Z,28.4330,-82.6670,-9.75,1111122 
COMPS,ioos:station:USF.COMPS:ARP:1,2017-05-01T12:12:00Z,28.4330,-82.6670,-9.74,1111122 
COMPS,ioos:station:USF.COMPS:ARP:1,2017-05-01T12:18:00Z,28.4330,-82.6670,-9.735,1111122 
COMPS,ioos:station:USF.COMPS:ARP:1,2017-05-01T12:24:00Z,28.4330,-82.6670,-9.751,1111122 
COMPS,ioos:station:USF.COMPS:ARP:1,2017-05-01T12:30:00Z,28.4330,-82.6670,-9.756,1111122 
COMPS,ioos:station:USF.COMPS:ARP:1,2017-05-01T12:36:00Z,28.4330,-82.6670,-9.763,1111122 
COMPS,ioos:station:USF.COMPS:ARP:1,2017-05-01T12:42:00Z,28.4330,-82.6670,-9.78,1111122 
COMPS,ioos:station:USF.COMPS:ARP:1,2017-05-01T12:48:00Z,28.4330,-82.6670,-9.773,1111122 
COMPS,ioos:station:USF.COMPS:ARP:1,2017-05-01T12:54:00Z,28.4330,-82.6670,-9.776,1111122 
COMPS,ioos:station:USF.COMPS:ARP:1,2017-05-01T13:00:00Z,28.4330,-82.6670,-9.792,1111122 
COMPS,ioos:station:USF.COMPS:ARP:1,2017-05-01T13:06:00Z,28.4330,-82.6670,-9.798,1111122 
COMPS,ioos:station:USF.COMPS:ARP:1,2017-05-01T13:12:00Z,28.4330,-82.6670,-9.816,1111122 
COMPS,ioos:station:USF.COMPS:ARP:1,2017-05-01T13:18:00Z,28.4330,-82.6670,-9.83,1111122 
COMPS,ioos:station:USF.COMPS:ARP:1,2017-05-01T13:24:00Z,28.4330,-82.6670,-9.848,1111122 
COMPS,ioos:station:USF.COMPS:ARP:1,2017-05-01T13:30:00Z,28.4330,-82.6670,-9.838,1111122 
COMPS,ioos:station:USF.COMPS:ARP:1,2017-05-01T13:36:00Z,28.4330,-82.6670,-9.842,1111122 
COMPS,ioos:station:USF.COMPS:ARP:1,2017-05-01T13:42:00Z,28.4330,-82.6670,-9.853,1111122 
COMPS,ioos:station:USF.COMPS:ARP:1,2017-05-01T13:48:00Z,28.4330,-82.6670,-9.851,1111122 
COMPS,ioos:station:USF.COMPS:ARP:1,2017-05-01T13:54:00Z,28.4330,-82.6670,-9.858,1111122 
COMPS,ioos:station:USF.COMPS:ARP:1,2017-05-01T14:00:00Z,28.4330,-82.6670,-9.873,1111122 
COMPS,ioos:station:USF.COMPS:ARP:1,2017-05-01T14:06:00Z,28.4330,-82.6670,-9.881,1111122 
COMPS,ioos:station:USF.COMPS:ARP:1,2017-05-01T14:12:00Z,28.4330,-82.6670,-9.895,1111122 
COMPS,ioos:station:USF.COMPS:ARP:1,2017-05-01T14:18:00Z,28.4330,-82.6670,-9.899,1111122 
COMPS,ioos:station:USF.COMPS:ARP:1,2017-05-01T14:24:00Z,28.4330,-82.6670,-9.905,1111122 
COMPS,ioos:station:USF.COMPS:ARP:1,2017-05-01T14:30:00Z,28.4330,-82.6670,-9.922,1111122 
COMPS,ioos:station:USF.COMPS:ARP:1,2017-05-01T14:36:00Z,28.4330,-82.6670,-9.937,1111122 
COMPS,ioos:station:USF.COMPS:ARP:1,2017-05-01T14:42:00Z,28.4330,-82.6670,-9.937,1111122 
COMPS,ioos:station:USF.COMPS:ARP:1,2017-05-01T14:48:00Z,28.4330,-82.6670,-9.924,1111122 
COMPS,ioos:station:USF.COMPS:ARP:1,2017-05-01T14:54:00Z,28.4330,-82.6670,-9.938,1111122 
COMPS,ioos:station:USF.COMPS:ARP:1,2017-05-01T15:00:00Z,28.4330,-82.6670,-9.929,1111122 
COMPS,ioos:station:USF.COMPS:ARP:1,2017-05-01T15:06:00Z,28.4330,-82.6670,-9.938,1111122 
COMPS,ioos:station:USF.COMPS:ARP:1,2017-05-01T15:12:00Z,28.4330,-82.6670,-9.949,1111122 
COMPS,ioos:station:USF.COMPS:ARP:1,2017-05-01T15:18:00Z,28.4330,-82.6670,-9.936,1111122 
COMPS,ioos:station:USF.COMPS:ARP:1,2017-05-01T15:24:00Z,28.4330,-82.6670,-9.942,1111122 
COMPS,ioos:station:USF.COMPS:ARP:1,2017-05-01T15:30:00Z,28.4330,-82.6670,-9.933,1111122 
COMPS,ioos:station:USF.COMPS:ARP:1,2017-05-01T15:36:00Z,28.4330,-82.6670,-9.927,1111122 
COMPS,ioos:station:USF.COMPS:ARP:1,2017-05-01T15:42:00Z,28.4330,-82.6670,-9.919,1111122 
COMPS,ioos:station:USF.COMPS:ARP:1,2017-05-01T15:48:00Z,28.4330,-82.6670,-9.919,1111122 
COMPS,ioos:station:USF.COMPS:ARP:1,2017-05-01T15:54:00Z,28.4330,-82.6670,-9.903,1111122 
COMPS,ioos:station:USF.COMPS:ARP:1,2017-05-01T16:00:00Z,28.4330,-82.6670,-9.897,1111122 
COMPS,ioos:station:USF.COMPS:ARP:1,2017-05-01T16:06:00Z,28.4330,-82.6670,-9.891,1111122 
COMPS,ioos:station:USF.COMPS:ARP:1,2017-05-01T16:12:00Z,28.4330,-82.6670,-9.877,1111122 
COMPS,ioos:station:USF.COMPS:ARP:1,2017-05-01T16:18:00Z,28.4330,-82.6670,-9.872,1111122 
COMPS,ioos:station:USF.COMPS:ARP:1,2017-05-01T16:24:00Z,28.4330,-82.6670,-9.89,1111122 
COMPS,ioos:station:USF.COMPS:ARP:1,2017-05-01T16:30:00Z,28.4330,-82.6670,-9.893,1111122 
COMPS,ioos:station:USF.COMPS:ARP:1,2017-05-01T16:36:00Z,28.4330,-82.6670,-9.871,1111122 
COMPS,ioos:station:USF.COMPS:ARP:1,2017-05-01T16:42:00Z,28.4330,-82.6670,-9.869,1111122 
COMPS,ioos:station:USF.COMPS:ARP:1,2017-05-01T16:48:00Z,28.4330,-82.6670,-9.857,1111122 
COMPS,ioos:station:USF.COMPS:ARP:1,2017-05-01T16:54:00Z,28.4330,-82.6670,-9.847,1111122 
COMPS,ioos:station:USF.COMPS:ARP:1,2017-05-01T17:00:00Z,28.4330,-82.6670,-9.849,1111122 
COMPS,ioos:station:USF.COMPS:ARP:1,2017-05-01T17:06:00Z,28.4330,-82.6670,-9.854,1111122 
COMPS,ioos:station:USF.COMPS:ARP:1,2017-05-01T17:12:00Z,28.4330,-82.6670,-9.847,1111122 
COMPS,ioos:station:USF.COMPS:ARP:1,2017-05-01T17:18:00Z,28.4330,-82.6670,-9.835,1111122 
COMPS,ioos:station:USF.COMPS:ARP:1,2017-05-01T17:24:00Z,28.4330,-82.6670,-9.835,1111122 
COMPS,ioos:station:USF.COMPS:ARP:1,2017-05-01T17:30:00Z,28.4330,-82.6670,-9.817,1111122 
COMPS,ioos:station:USF.COMPS:ARP:1,2017-05-01T17:36:00Z,28.4330,-82.6670,-9.802,1111122 
COMPS,ioos:station:USF.COMPS:ARP:1,2017-05-01T17:42:00Z,28.4330,-82.6670,-9.787,1111122 
COMPS,ioos:station:USF.COMPS:ARP:1,2017-05-01T17:48:00Z,28.4330,-82.6670,-9.776,1111122 
COMPS,ioos:station:USF.COMPS:ARP:1,2017-05-01T17:54:00Z,28.4330,-82.6670,-9.765,1111122 
COMPS,ioos:station:USF.COMPS:ARP:1,2017-05-01T18:00:00Z,28.4330,-82.6670,-9.757,1111122 
COMPS,ioos:station:USF.COMPS:ARP:1,2017-05-01T18:06:00Z,28.4330,-82.6670,-9.746,1111122 
COMPS,ioos:station:USF.COMPS:ARP:1,2017-05-01T18:12:00Z,28.4330,-82.6670,-9.736,1111122 
COMPS,ioos:station:USF.COMPS:ARP:1,2017-05-01T18:18:00Z,28.4330,-82.6670,-9.732,1111122 
COMPS,ioos:station:USF.COMPS:ARP:1,2017-05-01T18:24:00Z,28.4330,-82.6670,-9.722,1111122 
COMPS,ioos:station:USF.COMPS:ARP:1,2017-05-01T18:30:00Z,28.4330,-82.6670,-9.711,1111122 
COMPS,ioos:station:USF.COMPS:ARP:1,2017-05-01T18:36:00Z,28.4330,-82.6670,-9.708,1111122 
COMPS,ioos:station:USF.COMPS:ARP:1,2017-05-01T18:42:00Z,28.4330,-82.6670,-9.693,1111122 
COMPS,ioos:station:USF.COMPS:ARP:1,2017-05-01T18:48:00Z,28.4330,-82.6670,-9.667,1111122 
COMPS,ioos:station:USF.COMPS:ARP:1,2017-05-01T18:54:00Z,28.4330,-82.6670,-9.665,1111122 
COMPS,ioos:station:USF.COMPS:ARP:1,2017-05-01T19:00:00Z,28.4330,-82.6670,-9.643,1111122 
COMPS,ioos:station:USF.COMPS:ARP:1,2017-05-01T19:06:00Z,28.4330,-82.6670,-9.624,1111122 
COMPS,ioos:station:USF.COMPS:ARP:1,2017-05-01T19:12:00Z,28.4330,-82.6670,-9.609,1111122 
COMPS,ioos:station:USF.COMPS:ARP:1,2017-05-01T19:18:00Z,28.4330,-82.6670,-9.59,1111122 
COMPS,ioos:station:USF.COMPS:ARP:1,2017-05-01T19:24:00Z,28.4330,-82.6670,-9.568,1111122 
COMPS,ioos:station:USF.COMPS:ARP:1,2017-05-01T19:30:00Z,28.4330,-82.6670,-9.551,1111122 
COMPS,ioos:station:USF.COMPS:ARP:1,2017-05-01T19:36:00Z,28.4330,-82.6670,-9.534,1111122 
COMPS,ioos:station:USF.COMPS:ARP:1,2017-05-01T19:42:00Z,28.4330,-82.6670,-9.52,1111122 
COMPS,ioos:station:USF.COMPS:ARP:1,2017-05-01T19:48:00Z,28.4330,-82.6670,-9.505,1111122 
COMPS,ioos:station:USF.COMPS:ARP:1,2017-05-01T19:54:00Z,28.4330,-82.6670,-9.495,1111122 
COMPS,ioos:station:USF.COMPS:ARP:1,2017-05-01T20:00:00Z,28.4330,-82.6670,-9.478,1111122 
COMPS,ioos:station:USF.COMPS:ARP:1,2017-05-01T20:06:00Z,28.4330,-82.6670,-9.464,1111122 
COMPS,ioos:station:USF.COMPS:ARP:1,2017-05-01T20:12:00Z,28.4330,-82.6670,-9.456,1111122 
COMPS,ioos:station:USF.COMPS:ARP:1,2017-05-01T20:18:00Z,28.4330,-82.6670,-9.445,1111122 
COMPS,ioos:station:USF.COMPS:ARP:1,2017-05-01T20:24:00Z,28.4330,-82.6670,-9.436,1111122 
COMPS,ioos:station:USF.COMPS:ARP:1,2017-05-01T20:30:00Z,28.4330,-82.6670,-9.427,1111122 
COMPS,ioos:station:USF.COMPS:ARP:1,2017-05-01T20:36:00Z,28.4330,-82.6670,-9.419,1111122 
COMPS,ioos:station:USF.COMPS:ARP:1,2017-05-01T20:42:00Z,28.4330,-82.6670,-9.419,1111122 
COMPS,ioos:station:USF.COMPS:ARP:1,2017-05-01T20:48:00Z,28.4330,-82.6670,-9.418,1111122 
COMPS,ioos:station:USF.COMPS:ARP:1,2017-05-01T20:54:00Z,28.4330,-82.6670,-9.422,1111122 
COMPS,ioos:station:USF.COMPS:ARP:1,2017-05-01T21:00:00Z,28.4330,-82.6670,-9.423,1111122 
COMPS,ioos:station:USF.COMPS:ARP:1,2017-05-01T21:06:00Z,28.4330,-82.6670,-9.42,1111122 
COMPS,ioos:station:USF.COMPS:ARP:1,2017-05-01T21:12:00Z,28.4330,-82.6670,-9.418,1111122 
COMPS,ioos:station:USF.COMPS:ARP:1,2017-05-01T21:18:00Z,28.4330,-82.6670,-9.416,1111122 
COMPS,ioos:station:USF.COMPS:ARP:1,2017-05-01T21:24:00Z,28.4330,-82.6670,-9.425,1111122 
COMPS,ioos:station:USF.COMPS:ARP:1,2017-05-01T21:30:00Z,28.4330,-82.6670,-9.436,1111122 
COMPS,ioos:station:USF.COMPS:ARP:1,2017-05-01T21:36:00Z,28.4330,-82.6670,-9.447,1111122 
COMPS,ioos:station:USF.COMPS:ARP:1,2017-05-01T21:42:00Z,28.4330,-82.6670,-9.465,1111122 
COMPS,ioos:station:USF.COMPS:ARP:1,2017-05-01T21:48:00Z,28.4330,-82.6670,-9.485,1111122 
COMPS,ioos:station:USF.COMPS:ARP:1,2017-05-01T21:54:00Z,28.4330,-82.6670,-9.505,1111122 
COMPS,ioos:station:USF.COMPS:ARP:1,2017-05-01T22:00:00Z,28.4330,-82.6670,-9.517,1111122 
COMPS,ioos:station:USF.COMPS:ARP:1,2017-05-01T22:06:00Z,28.4330,-82.6670,-9.516,1111122 
COMPS,ioos:station:USF.COMPS:ARP:1,2017-05-01T22:12:00Z,28.4330,-82.6670,-9.523,1111122 
COMPS,ioos:station:USF.COMPS:ARP:1,2017-05-01T22:18:00Z,28.4330,-82.6670,-9.528,1111122 
COMPS,ioos:station:USF.COMPS:ARP:1,2017-05-01T22:24:00Z,28.4330,-82.6670,-9.518,1111122 
COMPS,ioos:station:USF.COMPS:ARP:1,2017-05-01T22:30:00Z,28.4330,-82.6670,-9.51,1111122 
COMPS,ioos:station:USF.COMPS:ARP:1,2017-05-01T22:36:00Z,28.4330,-82.6670,-9.506,1111122 
COMPS,ioos:station:USF.COMPS:ARP:1,2017-05-01T22:42:00Z,28.4330,-82.6670,-9.497,1111122 
COMPS,ioos:station:USF.COMPS:ARP:1,2017-05-01T22:48:00Z,28.4330,-82.6670,-9.493,1111122 
COMPS,ioos:station:USF.COMPS:ARP:1,2017-05-01T22:54:00Z,28.4330,-82.6670,-9.495,1111122 
COMPS,ioos:station:USF.COMPS:ARP:1,2017-05-01T23:00:00Z,28.4330,-82.6670,-9.51,1111122 
COMPS,ioos:station:USF.COMPS:ARP:1,2017-05-01T23:06:00Z,28.4330,-82.6670,-9.507,1111122 
COMPS,ioos:station:USF.COMPS:ARP:1,2017-05-01T23:12:00Z,28.4330,-82.6670,-9.517,1111122 
COMPS,ioos:station:USF.COMPS:ARP:1,2017-05-01T23:18:00Z,28.4330,-82.6670,-9.531,1111122 
COMPS,ioos:station:USF.COMPS:ARP:1,2017-05-01T23:24:00Z,28.4330,-82.6670,-9.553,1111122 
COMPS,ioos:station:USF.COMPS:ARP:1,2017-05-01T23:30:00Z,28.4330,-82.6670,-9.575,1111122 
COMPS,ioos:station:USF.COMPS:ARP:1,2017-05-01T23:36:00Z,28.4330,-82.6670,-9.591,1111122 
COMPS,ioos:station:USF.COMPS:ARP:1,2017-05-01T23:42:00Z,28.4330,-82.6670,-9.62,1111122 
COMPS,ioos:station:USF.COMPS:ARP:1,2017-05-01T23:48:00Z,28.4330,-82.6670,-9.638,1111122 
COMPS,ioos:station:USF.COMPS:ARP:1,2017-05-01T23:54:00Z,28.4330,-82.6670,-9.657,1111122 
COMPS,ioos:station:USF.COMPS:ARP:1,2017-05-02T00:00:00Z,28.4330,-82.6670,-9.674,1111122 
COMPS,ioos:station:USF.COMPS:ARP:1,2017-05-02T00:06:00Z,28.4330,-82.6670,-9.699,1111122 
COMPS,ioos:station:USF.COMPS:ARP:1,2017-05-02T00:12:00Z,28.4330,-82.6670,-9.72,1111122 
COMPS,ioos:station:USF.COMPS:ARP:1,2017-05-02T00:18:00Z,28.4330,-82.6670,-9.732,1111122 
COMPS,ioos:station:USF.COMPS:ARP:1,2017-05-02T00:24:00Z,28.4330,-82.6670,-9.732,1111122 
COMPS,ioos:station:USF.COMPS:ARP:1,2017-05-02T00:30:00Z,28.4330,-82.6670,-9.735,1111122 
COMPS,ioos:station:USF.COMPS:ARP:1,2017-05-02T00:36:00Z,28.4330,-82.6670,-9.733,1111122 
COMPS,ioos:station:USF.COMPS:ARP:1,2017-05-02T00:42:00Z,28.4330,-82.6670,-9.72,1111122 
COMPS,ioos:station:USF.COMPS:ARP:1,2017-05-02T00:48:00Z,28.4330,-82.6670,-9.729,1111122 
COMPS,ioos:station:USF.COMPS:ARP:1,2017-05-02T00:54:00Z,28.4330,-82.6670,-9.728,1111122 
COMPS,ioos:station:USF.COMPS:ARP:1,2017-05-02T01:00:00Z,28.4330,-82.6670,-9.744,1111122 
COMPS,ioos:station:USF.COMPS:ARP:1,2017-05-02T01:06:00Z,28.4330,-82.6670,-9.763,1111122 
COMPS,ioos:station:USF.COMPS:ARP:1,2017-05-02T01:12:00Z,28.4330,-82.6670,-9.779,1111122 
COMPS,ioos:station:USF.COMPS:ARP:1,2017-05-02T01:18:00Z,28.4330,-82.6670,-9.8,1111122 
COMPS,ioos:station:USF.COMPS:ARP:1,2017-05-02T01:24:00Z,28.4330,-82.6670,-9.821,1111122 
COMPS,ioos:station:USF.COMPS:ARP:1,2017-05-02T01:30:00Z,28.4330,-82.6670,-9.843,1111122 
COMPS,ioos:station:USF.COMPS:ARP:1,2017-05-02T01:36:00Z,28.4330,-82.6670,-9.863,1111122 
COMPS,ioos:station:USF.COMPS:ARP:1,2017-05-02T01:42:00Z,28.4330,-82.6670,-9.883,1111122 
COMPS,ioos:station:USF.COMPS:ARP:1,2017-05-02T01:48:00Z,28.4330,-82.6670,-9.902,1111122 
COMPS,ioos:station:USF.COMPS:ARP:1,2017-05-02T01:54:00Z,28.4330,-82.6670,-9.923,1111122 
COMPS,ioos:station:USF.COMPS:ARP:1,2017-05-02T02:00:00Z,28.4330,-82.6670,-9.944,1111122 
COMPS,ioos:station:USF.COMPS:ARP:1,2017-05-02T02:06:00Z,28.4330,-82.6670,-9.965,1111122 
COMPS,ioos:station:USF.COMPS:ARP:1,2017-05-02T02:12:00Z,28.4330,-82.6670,-9.985,1111122 
COMPS,ioos:station:USF.COMPS:ARP:1,2017-05-02T08:48:00Z,28.4330,-82.6670,-9.993,1111122 
COMPS,ioos:station:USF.COMPS:ARP:1,2017-05-02T08:54:00Z,28.4330,-82.6670,-9.973,1111122 
COMPS,ioos:station:USF.COMPS:ARP:1,2017-05-02T09:00:00Z,28.4330,-82.6670,-9.953,1111122 
COMPS,ioos:station:USF.COMPS:ARP:1,2017-05-02T09:06:00Z,28.4330,-82.6670,-9.934,1111122 
COMPS,ioos:station:USF.COMPS:ARP:1,2017-05-02T09:12:00Z,28.4330,-82.6670,-9.917,1111122 
COMPS,ioos:station:USF.COMPS:ARP:1,2017-05-02T09:18:00Z,28.4330,-82.6670,-9.9,1111122 
COMPS,ioos:station:USF.COMPS:ARP:1,2017-05-02T09:24:00Z,28.4330,-82.6670,-9.885,1111122 
COMPS,ioos:station:USF.COMPS:ARP:1,2017-05-02T09:30:00Z,28.4330,-82.6670,-9.87,1111122 
COMPS,ioos:station:USF.COMPS:ARP:1,2017-05-02T09:36:00Z,28.4330,-82.6670,-9.852,1111122 
COMPS,ioos:station:USF.COMPS:ARP:1,2017-05-02T09:42:00Z,28.4330,-82.6670,-9.838,1111122 
COMPS,ioos:station:USF.COMPS:ARP:1,2017-05-02T09:48:00Z,28.4330,-82.6670,-9.824,1111122 
COMPS,ioos:station:USF.COMPS:ARP:1,2017-05-02T09:54:00Z,28.4330,-82.6670,-9.81,1111122 
COMPS,ioos:station:USF.COMPS:ARP:1,2017-05-02T10:00:00Z,28.4330,-82.6670,-9.798,1111122 
COMPS,ioos:station:USF.COMPS:ARP:1,2017-05-02T10:06:00Z,28.4330,-82.6670,-9.787,1111122 
COMPS,ioos:station:USF.COMPS:ARP:1,2017-05-02T10:12:00Z,28.4330,-82.6670,-9.779,1111122 
COMPS,ioos:station:USF.COMPS:ARP:1,2017-05-02T10:18:00Z,28.4330,-82.6670,-9.764,1111122 
COMPS,ioos:station:USF.COMPS:ARP:1,2017-05-02T10:24:00Z,28.4330,-82.6670,-9.755,1111122 
COMPS,ioos:station:USF.COMPS:ARP:1,2017-05-02T10:30:00Z,28.4330,-82.6670,-9.745,1111122 
COMPS,ioos:station:USF.COMPS:ARP:1,2017-05-02T10:36:00Z,28.4330,-82.6670,-9.735,1111122 
COMPS,ioos:station:USF.COMPS:ARP:1,2017-05-02T10:42:00Z,28.4330,-82.6670,-9.724,1111122 
COMPS,ioos:station:USF.COMPS:ARP:1,2017-05-02T10:48:00Z,28.4330,-82.6670,-9.716,1111122 
COMPS,ioos:station:USF.COMPS:ARP:1,2017-05-02T10:54:00Z,28.4330,-82.6670,-9.706,1111122 
COMPS,ioos:station:USF.COMPS:ARP:1,2017-05-02T11:00:00Z,28.4330,-82.6670,-9.698,1111122 
COMPS,ioos:station:USF.COMPS:ARP:1,2017-05-02T11:06:00Z,28.4330,-82.6670,-9.69,1111122 
COMPS,ioos:station:USF.COMPS:ARP:1,2017-05-02T11:12:00Z,28.4330,-82.6670,-9.68,1111122 
COMPS,ioos:station:USF.COMPS:ARP:1,2017-05-02T11:18:00Z,28.4330,-82.6670,-9.677,1111122 
COMPS,ioos:station:USF.COMPS:ARP:1,2017-05-02T11:24:00Z,28.4330,-82.6670,-9.676,1111122 
COMPS,ioos:station:USF.COMPS:ARP:1,2017-05-02T11:30:00Z,28.4330,-82.6670,-9.675,1111122 
COMPS,ioos:station:USF.COMPS:ARP:1,2017-05-02T11:36:00Z,28.4330,-82.6670,-9.685,1111122 
COMPS,ioos:station:USF.COMPS:ARP:1,2017-05-02T11:42:00Z,28.4330,-82.6670,-9.687,1111122 
COMPS,ioos:station:USF.COMPS:ARP:1,2017-05-02T11:48:00Z,28.4330,-82.6670,-9.697,1111122 
COMPS,ioos:station:USF.COMPS:ARP:1,2017-05-02T11:54:00Z,28.4330,-82.6670,-9.702,1111122 
COMPS,ioos:station:USF.COMPS:ARP:1,2017-05-02T12:00:00Z,28.4330,-82.6670,-9.699,1111122 
COMPS,ioos:station:USF.COMPS:ARP:1,2017-05-02T12:06:00Z,28.4330,-82.6670,-9.709,1111122 
COMPS,ioos:station:USF.COMPS:ARP:1,2017-05-02T12:12:00Z,28.4330,-82.6670,-9.711,1111122 
COMPS,ioos:station:USF.COMPS:ARP:1,2017-05-02T12:18:00Z,28.4330,-82.6670,-9.717,1111122 
COMPS,ioos:station:USF.COMPS:ARP:1,2017-05-02T12:24:00Z,28.4330,-82.6670,-9.717,1111122 
COMPS,ioos:station:USF.COMPS:ARP:1,2017-05-02T12:30:00Z,28.4330,-82.6670,-9.714,1111122 
COMPS,ioos:station:USF.COMPS:ARP:1,2017-05-02T12:36:00Z,28.4330,-82.6670,-9.721,1111122 
COMPS,ioos:station:USF.COMPS:ARP:1,2017-05-02T12:42:00Z,28.4330,-82.6670,-9.724,1111122 
COMPS,ioos:station:USF.COMPS:ARP:1,2017-05-02T12:48:00Z,28.4330,-82.6670,-9.729,1111122 
COMPS,ioos:station:USF.COMPS:ARP:1,2017-05-02T12:54:00Z,28.4330,-82.6670,-9.736,1111122 
COMPS,ioos:station:USF.COMPS:ARP:1,2017-05-02T13:00:00Z,28.4330,-82.6670,-9.744,1111122 
COMPS,ioos:station:USF.COMPS:ARP:1,2017-05-02T13:06:00Z,28.4330,-82.6670,-9.75,1111122 
COMPS,ioos:station:USF.COMPS:ARP:1,2017-05-02T13:12:00Z,28.4330,-82.6670,-9.758,1111122 
COMPS,ioos:station:USF.COMPS:ARP:1,2017-05-02T13:18:00Z,28.4330,-82.6670,-9.748,1111122 
COMPS,ioos:station:USF.COMPS:ARP:1,2017-05-02T13:24:00Z,28.4330,-82.6670,-9.735,1111122 
COMPS,ioos:station:USF.COMPS:ARP:1,2017-05-02T13:30:00Z,28.4330,-82.6670,-9.73,1111122 
COMPS,ioos:station:USF.COMPS:ARP:1,2017-05-02T13:36:00Z,28.4330,-82.6670,-9.721,1111122 
COMPS,ioos:station:USF.COMPS:ARP:1,2017-05-02T13:42:00Z,28.4330,-82.6670,-9.72,1111122 
COMPS,ioos:station:USF.COMPS:ARP:1,2017-05-02T13:48:00Z,28.4330,-82.6670,-9.725,1111122 
COMPS,ioos:station:USF.COMPS:ARP:1,2017-05-02T13:54:00Z,28.4330,-82.6670,-9.753,1111122 
COMPS,ioos:station:USF.COMPS:ARP:1,2017-05-02T14:00:00Z,28.4330,-82.6670,-9.779,1111122 
COMPS,ioos:station:USF.COMPS:ARP:1,2017-05-02T14:06:00Z,28.4330,-82.6670,-9.801,1111122 
COMPS,ioos:station:USF.COMPS:ARP:1,2017-05-02T14:12:00Z,28.4330,-82.6670,-9.821,1111122 
COMPS,ioos:station:USF.COMPS:ARP:1,2017-05-02T14:18:00Z,28.4330,-82.6670,-9.84,1111122 
COMPS,ioos:station:USF.COMPS:ARP:1,2017-05-02T14:24:00Z,28.4330,-82.6670,-9.856,1111122 
COMPS,ioos:station:USF.COMPS:ARP:1,2017-05-02T14:30:00Z,28.4330,-82.6670,-9.862,1111122 
COMPS,ioos:station:USF.COMPS:ARP:1,2017-05-02T14:36:00Z,28.4330,-82.6670,-9.869,1111122 
COMPS,ioos:station:USF.COMPS:ARP:1,2017-05-02T14:42:00Z,28.4330,-82.6670,-9.869,1111122 
COMPS,ioos:station:USF.COMPS:ARP:1,2017-05-02T14:48:00Z,28.4330,-82.6670,-9.879,1111122 
COMPS,ioos:station:USF.COMPS:ARP:1,2017-05-02T14:54:00Z,28.4330,-82.6670,-9.884,1111122 
COMPS,ioos:station:USF.COMPS:ARP:1,2017-05-02T15:00:00Z,28.4330,-82.6670,-9.892,1111122 
COMPS,ioos:station:USF.COMPS:ARP:1,2017-05-02T15:06:00Z,28.4330,-82.6670,-9.903,1111122 
COMPS,ioos:station:USF.COMPS:ARP:1,2017-05-02T15:12:00Z,28.4330,-82.6670,-9.916,1111122 
COMPS,ioos:station:USF.COMPS:ARP:1,2017-05-02T15:18:00Z,28.4330,-82.6670,-9.928,1111122 
COMPS,ioos:station:USF.COMPS:ARP:1,2017-05-02T15:24:00Z,28.4330,-82.6670,-9.936,1111122 
COMPS,ioos:station:USF.COMPS:ARP:1,2017-05-02T15:30:00Z,28.4330,-82.6670,-9.947,1111122 
COMPS,ioos:station:USF.COMPS:ARP:1,2017-05-02T15:36:00Z,28.4330,-82.6670,-9.959,1111122 
COMPS,ioos:station:USF.COMPS:ARP:1,2017-05-02T15:42:00Z,28.4330,-82.6670,-9.972,1111122 
COMPS,ioos:station:USF.COMPS:ARP:1,2017-05-02T15:48:00Z,28.4330,-82.6670,-9.981,1111122 
COMPS,ioos:station:USF.COMPS:ARP:1,2017-05-02T15:54:00Z,28.4330,-82.6670,-9.99,1111122 
COMPS,ioos:station:USF.COMPS:ARP:1,2017-05-02T16:00:00Z,28.4330,-82.6670,-9.998,1111122 
COMPS,ioos:station:USF.COMPS:ARP:1,2017-05-02T17:00:00Z,28.4330,-82.6670,-9.994,1111122 
COMPS,ioos:station:USF.COMPS:ARP:1,2017-05-02T17:06:00Z,28.4330,-82.6670,-9.991,1111122 
COMPS,ioos:station:USF.COMPS:ARP:1,2017-05-02T17:12:00Z,28.4330,-82.6670,-9.982,1111122 
COMPS,ioos:station:USF.COMPS:ARP:1,2017-05-02T17:18:00Z,28.4330,-82.6670,-9.977,1111122 
COMPS,ioos:station:USF.COMPS:ARP:1,2017-05-02T17:24:00Z,28.4330,-82.6670,-9.979,1111122 
COMPS,ioos:station:USF.COMPS:ARP:1,2017-05-02T17:30:00Z,28.4330,-82.6670,-9.988,1111122 
COMPS,ioos:station:USF.COMPS:ARP:1,2017-05-02T18:30:00Z,28.4330,-82.6670,-9.991,1111122 